Temperature
20 20 21 21 21 21 19 17 17 19 19 20 19 18 20 21 21 20 20 19 19 18 18 17 17 16 16 15 15 14 14 14 13 13 13 13 13 12 12 12 12 12 12 12
21 21 21 21 21 20 20 20 19 19 20 20 20 21 21 21 20 20 20 20 19 19 18 18 17 16 16 15 15 15 14 14 14 13 13 13 13 13 12 12 12 12 12 12
18 20 21 20 20 20 20 20 20 19 19 20 19 19 20 21 21 21 20 20 19 19 18 18 17 17 16 16 15 15 15 14 14 14 13 13 13 13 13 12 12 12 12 12
17 20 20 19 20 21 21 21 20 20 20 19 20 22 22 22 22 21 21 20 20 19 18 18 17 17 17 16 16 15 15 15 14 14 14 13 13 13 13 13 13 12 12 12
16 18 18 20 22 21 21 21 20 20 20 21 22 21 20 22 22 21 21 20 19 19 18 18 17 17 17 16 16 15 15 15 14 14 14 14 14 13 13 13 13 13 12 12
16 19 19 20 21 23 22 21 21 20 20 20 20 17 18 21 21 21 20 20 19 19 18 18 17 17 17 16 16 16 15 15 15 14 14 14 14 14 13 13 13 13 13 13
16 17 17 19 21 22 20 20 22 22 22 21 20 20 22 21 21 20 20 19 19 18 18 18 17 17 17 16 16 16 15 15 15 15 14 14 14 14 14 13 13 13 13 13
14 16 18 20 22 20 20 22 23 23 23 23 23 22 21 21 20 20 19 19 18 18 18 17 17 17 16 16 16 16 15 15 15 15 15 14 14 14 14 14 14 14 13 13
16 18 20 22 23 24 24 24 24 24 23 23 22 22 21 21 20 20 19 19 18 18 17 17 17 17 16 16 16 16 15 15 15 15 15 14 14 14 14 14 14 14 13 13
17 17 20 22 24 24 24 24 24 24 23 23 22 22 21 20 20 19 19 18 18 17 17 17 17 16 16 16 16 15 15 15 15 15 15 14 14 14 14 14 14 14 13 13
17 18 20 22 23 24 24 24 24 23 23 23 22 21 21 20 20 19 19 18 18 17 17 17 16 16 16 16 15 15 15 15 15 14 14 14 14 14 14 14 13 13 13 13
17 20 18 22 24 24 23 23 23 23 22 22 22 21 21 20 20 19 19 18 18 17 17 16 16 16 15 15 15 15 15 14 14 14 14 14 14 14 13 13 13 13 13 13
22 23 23 23 24 23 23 23 23 22 22 22 21 21 20 20 19 19 18 18 17 17 16 16 15 15 15 15 15 14 14 14 14 13 13 13 13 13 13 13 13 13 13 13
22 22 22 22 23 23 23 23 22 22 21 21 21 20 20 19 18 18 17 17 17 16 16 15 15 15 14 14 14 14 13 13 13 12 12 12 12 12 12 12 12 13 12 12
21 21 22 22 22 22 22 21 21 21 20 20 20 19 19 18 18 17 17 16 16 15 15 15 14 14 14 13 13 13 13 12 12 12 12 12 11 11 11 11 11 11 12 12
20 21 21 21 21 21 21 20 20 20 19 19 18 18 18 17 17 16 15 15 15 14 14 14 13 13 13 13 12 12 12 11 11 11 11 11 11 11 11 11 11 10 11 11
18 19 19 20 20 20 20 20 20 20 19 18 18 17 16 16 15 15 14 14 13 13 13 13 13 12 12 12 11 11 11 11 10 10 10 10 10 10 10 10 10 9 9 9
18 18 19 19 20 20 20 19 19 19 18 17 17 16 15 15 14 14 13 13 12 12 12 12 11 11 11 11 10 10 10 10 9 9 9 9 9 9 9 9 9 8 8 8
17 18 18 19 19 19 19 19 18 18 17 16 16 15 15 14 14 13 12 12 11 11 11 11 10 10 10 10 9 9 9 9 8 8 8 8 8 8 8 8 7 7 7 7
16 17 17 18 18 18 18 17 17 16 16 15 15 14 13 13 12 12 11 11 11 11 10 10 9 9 9 9 9 8 8 8 8 7 7 7 7 7 7 6 6 6 6 6
14 15 15 16 16 16 16 16 16 15 15 14 14 13 13 12 11 11 10 10 9 9 9 9 8 8 8 8 8 7 7 7 7 7 6 6 6 6 6 6 5 5 5 5
13 13 14 14 15 15 14 14 14 14 13 13 13 12 12 11 10 10 10 10 9 8 8 8 8 7 7 7 7 7 7 6 6 6 6 6 5 5 5 5 5 4 4 4
11 12 12 13 13 13 13 13 13 12 12 12 11 11 11 10 10 9 9 8 8 8 7 7 7 7 7 7 6 6 6 6 6 5 5 5 5 5 4 4 4 4 4 3
11 11 11 11 11 11 11 11 11 11 11 11 10 10 10 9 9 9 8 8 7 7 7 7 6 6 6 6 6 6 6 5 5 5 5 4 4 4 4 4 3 3 3 3
10 10 10 10 10 10 10 10 10 10 9 9 9 9 9 9 8 8 7 7 7 6 6 6 6 6 6 6 5 5 5 5 5 4 4 4 4 3 3 3 3 3 2 2
9 9 9 9 9 9 9 9 9 9 9 8 8 8 8 7 7 7 7 7 6 6 6 6 6 5 5 5 5 5 5 4 4 4 4 3 3 3 3 3 2 2 2 2
8 8 8 8 8 8 8 8 8 8 8 8 7 7 7 7 6 6 6 6 6 6 6 5 5 5 5 5 5 4 4 4 4 3 3 3 3 3 2 2 2 2 1 1
Wind_Speed
7 7 6 7 8 8 8 9 8 8 7 9 10 10 9 8 8 8 8 8 9 8 7 7 6 5 6 5 4 4 3 3 3 2 1 1 2 3 3 4 4 4 5 5
4 5 5 5 9 10 10 8 8 6 7 8 6 6 7 8 9 9 9 9 9 9 8 8 7 7 6 6 5 4 4 4 3 2 1 1 2 3 3 4 4 4 4 5
4 5 2 6 10 11 8 8 9 10 10 6 6 9 10 10 9 9 9 9 9 9 9 9 8 8 7 6 5 5 4 4 3 2 2 2 2 2 3 4 4 4 4 5
2 2 5 10 7 9 10 9 9 8 8 10 10 9 8 9 10 9 8 8 8 8 8 7 6 7 6 5 5 5 4 4 3 3 3 2 2 3 3 3 3 3 4 5
3 3 7 9 6 6 7 7 8 9 8 8 6 5 2 4 7 9 8 8 7 7 7 6 7 7 6 5 4 4 4 4 5 4 3 3 3 4 3 2 3 3 4 4
4 2 6 9 7 3 5 4 6 9 10 9 9 5 5 4 6 6 6 6 6 6 5 6 6 6 6 5 4 5 6 6 5 5 4 4 5 4 3 2 3 4 4 4
5 5 8 9 5 4 4 8 5 8 10 10 10 8 7 7 6 6 6 6 6 7 5 4 5 6 6 4 4 6 5 4 4 4 5 5 4 3 3 3 3 4 5 5
6 5 9 7 5 7 9 4 4 8 9 9 8 7 8 9 8 8 7 6 7 7 5 3 5 6 5 3 4 3 3 3 4 4 4 3 3 4 3 3 3 4 4 5
10 10 9 7 9 8 7 6 7 8 8 10 10 9 9 8 9 8 7 7 6 7 6 3 3 5 5 3 3 3 3 3 3 3 3 3 3 4 3 3 3 4 3 4
5 8 8 7 6 6 8 8 8 8 9 11 10 10 10 9 8 7 6 6 6 7 6 3 2 2 2 2 2 2 2 2 2 2 3 3 3 3 2 3 3 3 3 4
5 7 5 6 7 8 7 7 7 7 8 11 12 10 10 9 9 8 7 6 6 7 6 4 2 2 1 0 2 2 1 1 2 2 3 3 3 3 3 3 3 3 3 3
8 9 7 9 10 9 9 9 10 9 8 8 10 11 10 9 8 8 7 6 6 6 6 4 3 2 1 1 2 3 1 1 2 2 2 2 3 3 4 4 4 3 3 3
10 10 9 10 9 9 11 11 10 10 10 9 8 9 10 7 7 7 7 8 8 7 6 5 4 4 3 2 2 3 1 1 1 2 2 2 2 2 4 4 4 4 5 5
9 6 6 7 8 9 10 9 8 7 7 9 8 9 9 8 8 9 8 8 8 8 7 6 6 4 4 3 3 3 2 2 2 2 2 2 2 2 1 2 4 5 5 6
11 9 9 7 6 6 6 8 9 8 8 8 9 10 11 11 10 9 8 9 9 9 7 6 6 4 4 4 5 4 3 2 2 2 2 2 2 2 2 2 3 4 5 7
9 6 4 5 7 7 7 9 10 10 10 9 9 10 10 11 10 9 8 9 10 8 6 6 5 3 4 5 5 4 3 6 5 3 3 3 3 3 3 4 4 5 6 6
4 5 5 5 8 8 10 10 12 12 10 11 11 12 12 13 12 10 9 8 9 8 6 6 5 4 4 5 5 4 3 5 8 6 4 4 4 4 4 4 4 4 5 7
7 9 8 9 10 10 9 9 10 11 11 10 13 13 14 14 13 11 10 9 9 8 6 5 5 5 5 5 5 4 4 4 4 4 4 4 4 4 4 4 5 5 4 6
6 5 6 6 7 8 9 9 10 10 11 13 14 13 12 12 12 12 10 10 9 7 3 3 8 7 5 5 6 4 5 5 5 4 4 5 5 4 4 4 4 4 4 5
7 5 3 2 2 5 7 8 9 10 10 12 13 13 12 12 12 12 10 7 5 5 5 5 6 5 4 4 7 4 5 5 4 4 4 4 4 4 4 4 4 4 4 4
8 6 3 2 3 4 6 9 10 10 10 12 14 14 13 12 11 11 10 7 4 5 6 8 5 3 3 4 6 4 4 4 4 3 3 3 3 3 3 3 3 3 3 4
7 5 4 3 5 5 4 6 9 10 10 10 11 13 13 12 10 8 7 6 6 8 6 4 3 4 5 6 4 3 3 3 3 2 2 2 2 2 2 2 2 3 3 3
5 4 4 3 4 4 5 6 7 9 10 11 12 12 12 10 9 9 7 4 5 9 6 4 5 6 6 4 3 3 3 2 2 1 1 1 1 1 1 2 2 2 3 3
3 2 2 2 3 5 5 4 6 7 8 8 9 10 11 9 5 4 5 10 11 9 5 5 6 6 5 3 3 2 2 2 1 1 1 1 1 1 1 1 2 2 3 3
3 1 1 2 3 2 4 5 6 7 7 6 7 7 7 7 7 6 6 7 10 9 4 5 6 5 4 3 3 2 2 2 2 2 1 1 1 0 0 1 1 2 2 3
4 3 3 3 3 3 4 5 5 5 6 6 5 5 5 5 6 6 6 6 8 8 5 3 3 3 3 3 3 3 2 2 1 1 2 1 1 1 1 1 2 2 2 3
4 3 2 2 2 3 4 5 6 5 6 7 6 5 6 6 6 6 6 5 5 5 4 3 3 3 3 3 3 2 2 2 2 2 2 1 1 1 1 1 1 1 2 3
Wind_Direction
227 235 212 214 220 197 182 186 189 223 220 229 220 208 206 198 190 187 192 193 193 196 202 204 202 200 201 209 210 196 183 201 231 246 265 305 324 333 338 343 345 341 345 344
285 265 240 236 226 209 207 201 206 217 241 237 205 177 183 186 184 189 196 198 196 194 195 199 200 199 200 209 209 192 189 212 227 233 252 286 301 320 335 339 341 345 346 342
272 291 344 268 229 208 207 204 187 211 226 202 178 189 192 192 189 193 198 196 192 193 196 198 199 192 195 203 198 188 200 217 223 224 241 270 292 318 320 320 332 336 334 337
236 14 240 247 246 202 204 219 200 197 200 189 195 197 197 186 183 193 192 187 188 191 195 198 194 191 190 184 180 187 203 214 219 217 237 264 287 295 297 303 309 314 319 324
142 229 276 289 269 184 180 238 213 191 190 182 146 93 356 213 181 184 185 180 183 184 181 179 183 182 170 172 176 189 208 218 222 215 224 243 262 273 276 288 299 302 306 319
134 190 252 257 270 188 117 262 241 181 175 160 131 145 233 216 158 153 152 157 162 159 150 161 179 163 155 170 182 210 220 222 220 212 214 230 246 257 260 260 276 299 309 309
171 214 263 257 263 99 143 237 236 180 170 161 174 193 188 162 145 142 142 148 143 136 137 162 162 144 148 165 205 226 219 214 217 220 221 230 245 253 258 269 291 305 308 308
160 192 253 244 159 180 213 222 177 166 165 164 169 156 150 154 151 146 141 139 135 131 136 146 139 134 140 190 233 219 197 204 225 236 242 237 240 264 268 268 286 298 307 312
188 211 234 217 202 210 179 175 179 168 170 155 151 161 163 163 160 158 155 151 143 140 139 137 141 136 149 221 223 190 188 223 247 261 260 256 243 261 276 268 261 279 287 294
243 263 257 243 221 197 185 184 181 171 164 159 162 168 168 166 166 165 163 159 149 139 141 152 159 145 176 222 190 163 196 250 268 278 283 281 268 257 256 263 258 266 271 277
256 277 301 286 242 213 193 172 165 166 168 167 161 166 169 169 171 170 165 159 148 148 150 151 133 113 58 84 137 148 205 290 299 291 287 292 284 259 247 246 222 227 251 255
241 241 217 242 240 215 191 188 181 170 167 169 164 164 163 166 169 163 158 151 145 144 142 138 121 91 13 33 119 125 94 343 320 316 314 309 309 317 292 265 286 271 269 264
235 244 227 244 240 211 199 194 183 174 167 165 162 156 153 151 152 146 143 143 146 145 137 121 99 69 22 26 98 109 106 353 342 345 340 337 338 332 326 332 332 323 316 312
249 242 248 241 231 215 200 186 168 156 156 153 150 143 140 135 134 134 137 138 132 123 116 109 92 62 20 42 81 81 62 38 35 3 351 348 344 336 338 343 347 342 334 328
259 240 236 237 225 201 176 155 151 155 152 146 144 145 143 141 140 138 132 125 116 109 106 101 90 62 31 54 71 67 61 42 29 17 11 7 6 11 14 13 4 348 352 353
261 256 226 206 199 190 171 167 169 172 165 156 152 149 144 137 132 127 126 125 120 117 113 105 95 73 58 65 69 60 48 50 56 44 30 28 29 31 28 26 24 21 17 2
250 251 234 222 210 201 192 187 182 175 167 160 156 146 136 130 125 123 121 118 117 115 111 107 98 74 67 70 76 67 53 46 54 55 44 40 40 40 38 41 40 36 25 18
246 235 227 217 210 208 201 186 174 167 163 158 148 144 144 143 143 139 133 123 111 98 91 101 97 83 68 64 74 71 69 62 56 56 51 48 47 44 43 40 33 30 17 18
308 274 246 229 210 196 190 181 170 160 153 150 149 150 148 144 142 139 134 127 124 120 115 103 100 87 72 65 80 74 74 70 61 52 51 49 50 43 43 41 35 27 24 24
342 334 299 242 177 165 166 159 150 146 148 147 142 139 138 141 140 137 131 127 141 150 147 123 104 92 81 76 81 78 75 72 67 57 53 51 47 39 35 35 35 31 27 24
352 358 17 71 107 125 138 141 142 142 142 144 146 147 144 142 141 137 133 132 155 148 135 123 114 112 103 97 83 80 77 75 73 69 65 59 50 42 35 30 28 28 25 18
355 8 29 64 90 93 107 124 131 133 133 134 136 138 138 140 139 133 135 150 161 151 138 128 134 131 124 105 92 86 83 84 84 83 73 60 52 41 28 22 16 12 8 360
355 9 28 63 96 100 96 109 124 133 137 140 143 146 147 148 149 147 151 167 159 154 147 153 157 143 124 110 107 101 100 95 91 92 82 69 59 51 28 9 358 351 344 339
333 0 13 51 90 101 110 121 122 126 130 133 141 146 144 141 142 153 151 162 166 160 158 171 167 153 135 127 123 122 122 117 118 121 102 74 46 32 18 355 341 335 334 335
286 262 165 127 128 141 147 134 122 123 124 127 133 141 143 147 152 161 159 163 169 166 167 177 171 157 141 142 148 153 162 172 163 151 139 130 121 109 307 314 325 330 332 332
259 234 216 205 192 177 161 146 143 144 140 139 141 144 142 143 148 152 157 167 174 171 171 176 173 159 155 164 170 172 175 171 139 135 157 169 182 200 253 303 331 337 332 329
250 234 211 198 193 177 165 160 159 161 158 155 156 160 157 154 154 161 163 164 167 169 172 177 177 173 173 175 177 175 172 175 174 175 180 190 203 223 247 284 305 314 314 313
Height
1502 1499 1498 1499 1498 1499 1505 1510 1516 1509 1504 1497 1493 1492 1493 1494 1496 1497 1498 1499 1500 1501 1502 1503 1503 1503 1503 1503 1502 1501 1500 1498 1497 1495 1493 1491 1489 1487 1484 1482 1479 1477 1475 1472
1500 1495 1494 1495 1494 1495 1496 1497 1500 1499 1497 1487 1487 1489 1491 1492 1493 1494 1495 1496 1497 1499 1500 1501 1501 1502 1502 1502 1501 1500 1499 1498 1496 1495 1493 1491 1489 1487 1485 1482 1480 1478 1475 1473
1511 1500 1497 1502 1490 1490 1490 1487 1490 1496 1491 1485 1487 1487 1487 1489 1490 1491 1492 1494 1495 1496 1497 1498 1499 1500 1500 1500 1500 1499 1498 1497 1496 1494 1493 1491 1489 1487 1485 1483 1481 1478 1476 1473
1512 1506 1512 1495 1476 1477 1480 1479 1479 1479 1479 1480 1481 1483 1485 1486 1487 1489 1490 1491 1493 1494 1495 1497 1498 1498 1499 1499 1499 1498 1497 1496 1495 1494 1492 1490 1489 1487 1485 1483 1481 1479 1476 1474
1515 1514 1506 1487 1473 1473 1478 1479 1473 1474 1475 1477 1479 1482 1484 1485 1485 1486 1488 1489 1491 1492 1493 1495 1496 1497 1497 1497 1497 1497 1496 1495 1494 1493 1491 1490 1488 1487 1485 1483 1481 1479 1477 1475
1513 1511 1510 1488 1469 1466 1472 1480 1469 1469 1472 1475 1478 1487 1485 1483 1484 1485 1486 1488 1489 1491 1492 1493 1494 1495 1495 1495 1495 1495 1495 1494 1493 1492 1491 1489 1488 1486 1485 1483 1481 1480 1478 1476
1509 1510 1499 1476 1468 1469 1487 1482 1466 1466 1468 1471 1473 1476 1477 1480 1482 1483 1485 1486 1488 1489 1490 1491 1492 1493 1493 1494 1494 1494 1493 1492 1491 1491 1489 1488 1487 1486 1484 1483 1481 1479 1477 1476
1508 1509 1499 1466 1467 1471 1470 1463 1463 1464 1466 1468 1470 1473 1475 1478 1480 1482 1483 1485 1486 1487 1488 1489 1490 1491 1491 1491 1492 1491 1491 1490 1490 1489 1488 1487 1486 1484 1483 1482 1480 1478 1477 1475
1485 1482 1465 1460 1460 1460 1461 1461 1462 1463 1465 1467 1469 1471 1473 1476 1478 1480 1481 1483 1484 1485 1486 1487 1488 1489 1489 1489 1489 1489 1489 1488 1488 1487 1486 1485 1484 1483 1481 1480 1478 1477 1475 1473
1475 1467 1460 1458 1457 1458 1459 1459 1460 1461 1463 1465 1467 1469 1471 1473 1475 1477 1479 1480 1482 1483 1484 1485 1486 1486 1487 1487 1487 1487 1486 1486 1485 1485 1484 1483 1482 1480 1479 1478 1476 1475 1473 1472
1470 1463 1459 1456 1455 1455 1456 1457 1458 1460 1461 1462 1464 1466 1468 1470 1472 1474 1476 1478 1479 1481 1482 1482 1483 1484 1484 1484 1484 1484 1483 1483 1482 1482 1481 1480 1479 1478 1477 1476 1474 1473 1471 1470
1467 1458 1458 1454 1453 1453 1453 1454 1455 1456 1458 1460 1461 1463 1465 1468 1470 1472 1474 1475 1477 1478 1479 1480 1481 1481 1481 1481 1481 1481 1481 1480 1479 1479 1478 1477 1476 1475 1475 1473 1472 1471 1469 1468
1454 1452 1451 1450 1449 1449 1449 1450 1451 1453 1454 1456 1458 1460 1462 1464 1467 1469 1471 1472 1474 1475 1477 1478 1478 1478 1479 1479 1479 1478 1478 1477 1476 1476 1475 1474 1473 1472 1471 1471 1470 1468 1467 1465
1448 1447 1445 1444 1444 1444 1444 1445 1447 1449 1451 1453 1455 1457 1459 1461 1464 1466 1468 1469 1471 1473 1474 1475 1476 1476 1476 1476 1476 1476 1475 1475 1474 1473 1472 1471 1470 1469 1468 1467 1466 1465 1464 1463
1441 1440 1439 1438 1438 1439 1440 1441 1443 1445 1447 1449 1452 1454 1456 1458 1460 1463 1465 1467 1468 1470 1471 1472 1473 1473 1474 1474 1474 1473 1473 1472 1472 1471 1470 1469 1468 1467 1466 1465 1464 1462 1461 1460
1434 1433 1433 1433 1433 1434 1435 1436 1438 1440 1442 1445 1447 1450 1452 1455 1458 1460 1462 1464 1466 1467 1468 1469 1470 1471 1471 1471 1471 1471 1471 1470 1470 1469 1468 1467 1466 1465 1464 1463 1461 1460 1458 1457
1430 1428 1428 1428 1428 1429 1430 1431 1433 1435 1438 1440 1443 1446 1449 1452 1455 1457 1459 1462 1463 1465 1466 1467 1468 1469 1469 1469 1469 1469 1469 1468 1468 1467 1466 1465 1464 1463 1462 1461 1460 1459 1457 1456
1425 1424 1424 1423 1423 1424 1425 1427 1429 1431 1434 1437 1440 1443 1446 1448 1451 1454 1456 1459 1461 1463 1464 1465 1466 1467 1467 1467 1467 1467 1467 1466 1466 1465 1465 1464 1463 1462 1461 1460 1459 1457 1456 1455
1420 1419 1419 1419 1419 1420 1421 1422 1424 1427 1430 1433 1436 1439 1442 1446 1449 1451 1454 1457 1459 1460 1462 1463 1464 1465 1465 1465 1466 1466 1465 1465 1465 1464 1464 1463 1462 1461 1460 1459 1458 1456 1455 1453
1418 1416 1415 1414 1415 1416 1417 1419 1421 1424 1427 1430 1433 1436 1440 1443 1446 1449 1452 1454 1457 1459 1460 1462 1463 1463 1464 1464 1464 1464 1464 1464 1464 1463 1463 1462 1461 1460 1459 1458 1456 1455 1453 1452
1417 1415 1414 1412 1412 1413 1415 1416 1418 1421 1424 1427 1430 1433 1437 1441 1444 1447 1449 1452 1455 1457 1458 1460 1461 1462 1462 1463 1463 1463 1463 1463 1462 1462 1461 1461 1460 1459 1458 1456 1455 1454 1452 1450
1419 1416 1415 1414 1413 1413 1415 1416 1418 1421 1423 1426 1429 1432 1436 1439 1442 1445 1448 1451 1453 1455 1457 1458 1459 1460 1461 1461 1462 1462 1462 1461 1461 1461 1460 1459 1459 1457 1456 1455 1454 1452 1451 1449
1421 1419 1417 1416 1415 1415 1416 1417 1419 1421 1423 1426 1428 1431 1434 1437 1440 1443 1446 1449 1451 1453 1455 1457 1458 1459 1460 1460 1460 1460 1460 1460 1460 1459 1459 1458 1457 1456 1455 1453 1452 1450 1448 1446
1422 1420 1419 1418 1417 1417 1417 1418 1420 1422 1424 1426 1429 1431 1434 1436 1439 1442 1445 1447 1450 1452 1454 1455 1456 1457 1458 1458 1459 1459 1459 1458 1458 1458 1457 1456 1455 1454 1452 1451 1449 1447 1445 1443
1421 1420 1419 1418 1418 1417 1418 1419 1420 1422 1424 1426 1428 1431 1433 1436 1438 1441 1443 1446 1448 1450 1452 1453 1454 1455 1456 1456 1457 1457 1457 1456 1456 1455 1454 1453 1452 1451 1449 1448 1446 1444 1442 1439
1419 1419 1418 1417 1417 1417 1417 1418 1419 1421 1423 1425 1427 1430 1432 1435 1437 1440 1442 1444 1446 1448 1450 1451 1452 1453 1454 1454 1454 1454 1454 1454 1453 1452 1452 1450 1449 1448 1446 1444 1442 1440 1437 1435
1416 1416 1415 1415 1415 1415 1416 1417 1418 1419 1421 1423 1425 1428 1430 1433 1435 1438 1440 1442 1444 1446 1447 1449 1450 1450 1451 1451 1451 1451 1451 1451 1450 1449 1448 1447 1445 1444 1442 1440 1437 1435 1432 1429